| time (UTC) | temp F | wind direction | speed MPH | gust MPH | rain 1hr in | rain 24hr in | rain mn in | humidity % | barometer mb |
| 20260507012145 | 41 | 21 | 7.0 | 0.0 | 0.00 | 0.00 | 0.00 | 100 | 1013.3 |
| 20260507011624 | 41 | 28 | 8.0 | 0.0 | 0.00 | 0.00 | 0.00 | 100 | 1013.1 |
| 20260507011106 | 41 | 19 | 12.0 | 0.0 | 0.00 | 0.00 | 0.00 | 100 | 1013.1 |
| 20260507010631 | 41 | 15 | 5.0 | 0.0 | 0.00 | 0.00 | 0.00 | 100 | 1013.1 |
| 20260507010111 | 41 | 45 | 7.0 | 0.0 | 0.00 | 0.00 | 0.00 | 100 | 1013.0 |
| 20260507005637 | 41 | 28 | 8.0 | 0.0 | 0.00 | 0.00 | 0.00 | 100 | 1012.8 |
| 20260507005118 | 41 | 20 | 9.0 | 0.0 | 0.00 | 0.00 | 0.00 | 100 | 1012.8 |
| 20260507004643 | 41 | 18 | 4.0 | 0.0 | 0.00 | 0.00 | 0.00 | 100 | 1012.7 |
| 20260507004125 | 41 | 14 | 7.0 | 0.0 | 0.00 | 0.00 | 0.00 | 100 | 1012.7 |
| 20260507003605 | 41 | 24 | 14.0 | 0.0 | 0.00 | 0.00 | 0.00 | 100 | 1012.5 |
| 20260507003130 | 41 | 17 | 11.0 | 0.0 | 0.00 | 0.00 | 0.00 | 100 | 1012.3 |
| 20260507002610 | 41 | 32 | 8.0 | 0.0 | 0.00 | 0.00 | 0.00 | 100 | 1012.5 |
| 20260507002136 | 41 | 14 | 8.0 | 0.0 | 0.00 | 0.00 | 0.00 | 100 | 1012.6 |
| 20260507001617 | 41 | 352 | 9.0 | 0.0 | 0.00 | 0.00 | 0.00 | 100 | 1012.5 |
| 20260507001142 | 41 | 18 | 11.0 | 0.0 | 0.00 | 0.00 | 0.00 | 100 | 1012.6 |
| 20260507000624 | 41 | 2 | 6.0 | 0.0 | 0.00 | 0.00 | 0.00 | 100 | 1012.5 |
| 20260507000104 | 41 | 31 | 11.0 | 0.0 | 0.00 | 0.00 | 0.00 | 100 | 1012.6 |
| 20260506235629 | 41 | 4 | 6.0 | 0.0 | 0.00 | 0.00 | 0.00 | 100 | 1012.6 |
| 20260506235110 | 41 | 2 | 6.0 | 0.0 | 0.00 | 0.00 | 0.00 | 100 | 1012.5 |
| 20260506234636 | 41 | 349 | 6.0 | 0.0 | 0.00 | 0.00 | 0.00 | 100 | 1012.6 |
| 20260506234117 | 41 | 22 | 8.0 | 0.0 | 0.00 | 0.00 | 0.00 | 100 | 1012.6 |
| 20260506233643 | 41 | 20 | 10.0 | 0.0 | 0.00 | 0.00 | 0.00 | 100 | 1012.3 |
| 20260506233123 | 41 | 7 | 7.0 | 0.0 | 0.00 | 0.00 | 0.00 | 100 | 1012.2 |
| 20260506232603 | 41 | 357 | 9.0 | 0.0 | 0.00 | 0.00 | 0.00 | 100 | 1012.3 |
| 20260506232130 | 41 | 9 | 8.0 | 0.0 | 0.00 | 0.00 | 0.00 | 100 | 1012.5 |
| 20260506231609 | 41 | 17 | 10.0 | 0.0 | 0.00 | 0.00 | 0.00 | 100 | 1012.5 |
| 20260506231136 | 41 | 18 | 10.0 | 0.0 | 0.00 | 0.00 | 0.00 | 100 | 1012.6 |
| 20260506230616 | 41 | 29 | 6.0 | 0.0 | 0.00 | 0.00 | 0.00 | 100 | 1012.5 |
| 20260506230142 | 41 | 20 | 4.0 | 0.0 | 0.00 | 0.00 | 0.00 | 100 | 1012.5 |
| 20260506225622 | 41 | 39 | 9.0 | 0.0 | 0.00 | 0.00 | 0.00 | 100 | 1012.5 |
| 20260506225102 | 41 | 6 | 8.0 | 0.0 | 0.00 | 0.00 | 0.00 | 100 | 1012.5 |
| 20260506224629 | 41 | 23 | 9.0 | 0.0 | 0.00 | 0.00 | 0.00 | 100 | 1012.5 |
| 20260506224109 | 41 | 31 | 9.0 | 0.0 | 0.00 | 0.00 | 0.00 | 100 | 1012.6 |
| 20260506223635 | 41 | 342 | 3.0 | 0.0 | 0.00 | 0.00 | 0.00 | 100 | 1012.5 |
| 20260506223116 | 41 | 70 | 5.0 | 0.0 | 0.00 | 0.00 | 0.00 | 100 | 1012.3 |
| 20260506222641 | 42 | 60 | 6.0 | 0.0 | 0.00 | 0.00 | 0.00 | 100 | 1012.5 |
| 20260506222122 | 42 | 14 | 6.0 | 0.0 | 0.00 | 0.00 | 0.00 | 100 | 1012.6 |
| 20260506221603 | 42 | 22 | 5.0 | 0.0 | 0.00 | 0.00 | 0.00 | 100 | 1012.3 |
| 20260506221128 | 42 | 72 | 4.0 | 0.0 | 0.00 | 0.00 | 0.00 | 100 | 1012.5 |
| 20260506220608 | 42 | 354 | 3.0 | 0.0 | 0.00 | 0.00 | 0.00 | 100 | 1012.3 |
| 20260506220134 | 42 | 37 | 9.0 | 0.0 | 0.00 | 0.00 | 0.00 | 100 | 1012.2 |
| 20260506215615 | 42 | 25 | 9.0 | 0.0 | 0.00 | 0.00 | 0.00 | 100 | 1012.3 |
| 20260506215140 | 42 | 42 | 8.0 | 0.0 | 0.00 | 0.00 | 0.00 | 100 | 1012.1 |
| 20260506214621 | 42 | 36 | 8.0 | 0.0 | 0.00 | 0.00 | 0.00 | 100 | 1012.1 |
| 20260506214101 | 42 | 11 | 8.0 | 0.0 | 0.00 | 0.00 | 0.00 | 100 | 1012.1 |
| 20260506213628 | 42 | 4 | 5.0 | 0.0 | 0.00 | 0.00 | 0.00 | 100 | 1012.2 |
| 20260506213108 | 41 | 11 | 6.0 | 0.0 | 0.00 | 0.00 | 0.00 | 100 | 1012.2 |
| 20260506212634 | 41 | 32 | 8.0 | 0.0 | 0.00 | 0.00 | 0.00 | 100 | 1012.2 |
| 20260506212114 | 41 | 15 | 6.0 | 0.0 | 0.00 | 0.00 | 0.00 | 100 | 1012.2 |
| 20260506211641 | 41 | 25 | 10.0 | 0.0 | 0.00 | 0.00 | 0.00 | 100 | 1012.2 |
| 20260506211121 | 41 | 44 | 8.0 | 0.0 | 0.00 | 0.00 | 0.00 | 100 | 1012.1 |
| 20260506210601 | 41 | 35 | 11.0 | 0.0 | 0.00 | 0.00 | 0.00 | 100 | 1012.1 |
| 20260506210126 | 41 | 36 | 9.0 | 0.0 | 0.00 | 0.00 | 0.00 | 100 | 1012.0 |
| 20260506205608 | 41 | 46 | 9.0 | 0.0 | 0.00 | 0.00 | 0.00 | 100 | 1012.1 |
| 20260506205133 | 41 | 60 | 7.0 | 0.0 | 0.00 | 0.00 | 0.00 | 100 | 1012.1 |
| 20260506204613 | 41 | 15 | 6.0 | 0.0 | 0.00 | 0.00 | 0.00 | 100 | 1012.0 |
| 20260506204141 | 41 | 32 | 10.0 | 0.0 | 0.00 | 0.00 | 0.00 | 100 | 1011.7 |
| 20260506203620 | 41 | 28 | 7.0 | 0.0 | 0.00 | 0.00 | 0.00 | 100 | 1011.6 |
| 20260506203101 | 41 | 48 | 7.0 | 0.0 | 0.00 | 0.00 | 0.00 | 100 | 1011.7 |
| 20260506202628 | 41 | 54 | 11.0 | 0.0 | 0.00 | 0.00 | 0.00 | 100 | 1011.7 |
| 20260506202107 | 41 | 33 | 11.0 | 0.0 | 0.00 | 0.00 | 0.00 | 100 | 1011.6 |
| 20260506201633 | 41 | 37 | 11.0 | 0.0 | 0.00 | 0.00 | 0.00 | 100 | 1011.6 |
| 20260506201114 | 41 | 39 | 9.0 | 0.0 | 0.00 | 0.00 | 0.00 | 100 | 1011.7 |
| 20260506200640 | 41 | 39 | 15.0 | 0.0 | 0.00 | 0.00 | 0.00 | 100 | 1011.7 |
| 20260506200120 | 41 | 39 | 11.0 | 0.0 | 0.00 | 0.00 | 0.00 | 100 | 1011.8 |
| 20260506195646 | 41 | 44 | 9.0 | 0.0 | 0.00 | 0.00 | 0.00 | 100 | 1011.8 |
| 20260506195127 | 41 | 33 | 9.0 | 0.0 | 0.00 | 0.00 | 0.00 | 100 | 1011.8 |
| 20260506194607 | 41 | 37 | 10.0 | 0.0 | 0.00 | 0.00 | 0.00 | 100 | 1011.9 |
| 20260506194133 | 41 | 35 | 13.0 | 0.0 | 0.00 | 0.00 | 0.00 | 100 | 1011.9 |
| 20260506193614 | 41 | 32 | 12.0 | 0.0 | 0.00 | 0.00 | 0.00 | 100 | 1011.7 |
| 20260506193139 | 41 | 46 | 8.0 | 0.0 | 0.00 | 0.00 | 0.00 | 100 | 1011.8 |
| 20260506192619 | 41 | 29 | 8.0 | 0.0 | 0.00 | 0.00 | 0.00 | 100 | 1011.8 |
| 20260506192146 | 41 | 15 | 10.0 | 0.0 | 0.00 | 0.00 | 0.00 | 100 | 1011.8 |
| 20260506191625 | 41 | 51 | 7.0 | 0.0 | 0.00 | 0.00 | 0.00 | 100 | 1011.8 |
| 20260506191106 | 41 | 51 | 9.0 | 0.0 | 0.00 | 0.00 | 0.00 | 100 | 1011.7 |
| 20260506190632 | 41 | 48 | 8.0 | 0.0 | 0.00 | 0.00 | 0.00 | 100 | 1011.7 |
| 20260506190113 | 41 | 52 | 8.0 | 0.0 | 0.00 | 0.00 | 0.00 | 100 | 1011.6 |
| 20260506185639 | 41 | 63 | 10.0 | 0.0 | 0.00 | 0.00 | 0.00 | 100 | 1011.6 |
| 20260506185118 | 41 | 43 | 10.0 | 0.0 | 0.00 | 0.00 | 0.00 | 100 | 1011.7 |
| 20260506184645 | 41 | 23 | 12.0 | 0.0 | 0.00 | 0.00 | 0.00 | 100 | 1011.7 |
| 20260506184126 | 41 | 13 | 7.0 | 0.0 | 0.00 | 0.00 | 0.00 | 100 | 1011.6 |
| 20260506183605 | 42 | 35 | 13.0 | 0.0 | 0.00 | 0.00 | 0.00 | 100 | 1011.4 |
| 20260506183132 | 42 | 13 | 8.0 | 0.0 | 0.00 | 0.00 | 0.00 | 100 | 1011.4 |
| 20260506182612 | 42 | 29 | 10.0 | 0.0 | 0.00 | 0.00 | 0.00 | 100 | 1011.3 |
| 20260506182138 | 41 | 6 | 9.0 | 0.0 | 0.00 | 0.00 | 0.00 | 100 | 1011.3 |
| 20260506181618 | 41 | 41 | 11.0 | 0.0 | 0.00 | 0.00 | 0.00 | 100 | 1011.3 |
| 20260506181145 | 41 | 34 | 13.0 | 0.0 | 0.00 | 0.00 | 0.00 | 100 | 1011.1 |
| 20260506180625 | 41 | 49 | 7.0 | 0.0 | 0.00 | 0.00 | 0.00 | 100 | 1011.2 |
| 20260506180105 | 41 | 42 | 8.0 | 0.0 | 0.00 | 0.00 | 0.00 | 100 | 1011.2 |
| 20260506175631 | 41 | 37 | 9.0 | 0.0 | 0.00 | 0.00 | 0.00 | 100 | 1011.2 |
| 20260506175112 | 41 | 44 | 10.0 | 0.0 | 0.00 | 0.00 | 0.00 | 100 | 1011.0 |
| 20260506174638 | 41 | 37 | 7.0 | 0.0 | 0.00 | 0.00 | 0.00 | 100 | 1011.2 |
| 20260506174118 | 41 | 48 | 12.0 | 0.0 | 0.00 | 0.00 | 0.00 | 100 | 1011.1 |
| 20260506173644 | 41 | 40 | 10.0 | 0.0 | 0.00 | 0.00 | 0.00 | 100 | 1011.1 |
| 20260506173125 | 41 | 39 | 8.0 | 0.0 | 0.00 | 0.00 | 0.00 | 100 | 1011.1 |
| 20260506172605 | 41 | 36 | 10.0 | 0.0 | 0.00 | 0.00 | 0.00 | 100 | 1011.0 |
| 20260506172131 | 41 | 39 | 10.0 | 0.0 | 0.00 | 0.00 | 0.00 | 100 | 1011.1 |
| 20260506171611 | 41 | 34 | 10.0 | 0.0 | 0.00 | 0.00 | 0.00 | 100 | 1011.0 |
| 20260506171138 | 42 | 29 | 10.0 | 0.0 | 0.00 | 0.00 | 0.00 | 100 | 1011.1 |
| 20260506170617 | 42 | 9 | 9.0 | 0.0 | 0.00 | 0.00 | 0.00 | 100 | 1011.0 |
| 20260506170143 | 42 | 27 | 8.0 | 0.0 | 0.00 | 0.00 | 0.00 | 100 | 1011.1 |
| 20260506165624 | 42 | 37 | 13.0 | 0.0 | 0.00 | 0.00 | 0.00 | 100 | 1011.0 |
| 20260506165105 | 42 | 13 | 8.0 | 0.0 | 0.00 | 0.00 | 0.00 | 100 | 1011.0 |
| 20260506164630 | 42 | 23 | 6.0 | 0.0 | 0.00 | 0.00 | 0.00 | 100 | 1011.0 |
| 20260506164110 | 42 | 47 | 8.0 | 0.0 | 0.00 | 0.00 | 0.00 | 100 | 1011.0 |
| 20260506163637 | 42 | 60 | 7.0 | 0.0 | 0.00 | 0.00 | 0.00 | 100 | 1011.1 |
| 20260506163117 | 42 | 25 | 11.0 | 0.0 | 0.00 | 0.00 | 0.00 | 100 | 1011.1 |
| 20260506162643 | 42 | 34 | 7.0 | 0.0 | 0.00 | 0.00 | 0.00 | 100 | 1011.0 |
| 20260506162123 | 42 | 58 | 7.0 | 0.0 | 0.00 | 0.00 | 0.00 | 100 | 1011.1 |
| 20260506161604 | 42 | 51 | 10.0 | 0.0 | 0.00 | 0.00 | 0.00 | 100 | 1011.1 |
| 20260506161130 | 42 | 41 | 7.0 | 0.0 | 0.00 | 0.00 | 0.00 | 100 | 1011.1 |
| 20260506160610 | 42 | 47 | 8.0 | 0.0 | 0.00 | 0.00 | 0.00 | 100 | 1010.9 |
| 20260506160135 | 42 | 51 | 4.0 | 0.0 | 0.00 | 0.00 | 0.00 | 100 | 1011.0 |
| 20260506155616 | 42 | 20 | 7.0 | 0.0 | 0.00 | 0.00 | 0.00 | 100 | 1011.0 |
| 20260506155142 | 42 | 42 | 12.0 | 0.0 | 0.00 | 0.00 | 0.00 | 100 | 1011.1 |
| 20260506154623 | 42 | 47 | 10.0 | 0.0 | 0.00 | 0.00 | 0.00 | 100 | 1011.0 |
| 20260506154103 | 42 | 39 | 14.0 | 0.0 | 0.00 | 0.00 | 0.00 | 100 | 1011.0 |
| 20260506153628 | 42 | 59 | 10.0 | 0.0 | 0.00 | 0.00 | 0.00 | 100 | 1011.1 |
| 20260506153110 | 42 | 60 | 7.0 | 0.0 | 0.00 | 0.00 | 0.00 | 100 | 1011.2 |
| 20260506152635 | 42 | 58 | 7.0 | 0.0 | 0.00 | 0.00 | 0.00 | 100 | 1011.1 |
| 20260506152116 | 42 | 50 | 9.0 | 0.0 | 0.00 | 0.00 | 0.00 | 100 | 1011.1 |
| 20260506151642 | 42 | 45 | 12.0 | 0.0 | 0.00 | 0.00 | 0.00 | 100 | 1011.1 |
| 20260506151122 | 42 | 62 | 10.0 | 0.0 | 0.00 | 0.00 | 0.00 | 100 | 1011.0 |
| 20260506150602 | 42 | 56 | 10.0 | 0.0 | 0.00 | 0.00 | 0.00 | 100 | 1011.0 |
| 20260506150129 | 42 | 41 | 14.0 | 0.0 | 0.00 | 0.00 | 0.00 | 100 | 1011.0 |
| 20260506145608 | 42 | 59 | 10.0 | 0.0 | 0.00 | 0.00 | 0.00 | 100 | 1011.1 |
| 20260506145135 | 42 | 52 | 8.0 | 0.0 | 0.00 | 0.00 | 0.00 | 100 | 1011.1 |
| 20260506144614 | 42 | 54 | 3.0 | 0.0 | 0.00 | 0.00 | 0.00 | 100 | 1011.2 |
| 20260506144141 | 42 | 57 | 9.0 | 0.0 | 0.00 | 0.00 | 0.00 | 100 | 1011.2 |
| 20260506143622 | 42 | 64 | 12.0 | 0.0 | 0.00 | 0.00 | 0.00 | 100 | 1011.2 |
| 20260506143101 | 42 | 51 | 10.0 | 0.0 | 0.00 | 0.00 | 0.00 | 100 | 1011.3 |
| 20260506142628 | 42 | 47 | 11.0 | 0.0 | 0.00 | 0.00 | 0.00 | 100 | 1011.2 |
| 20260506142109 | 42 | 60 | 6.0 | 0.0 | 0.00 | 0.00 | 0.00 | 100 | 1011.4 |
| 20260506141635 | 42 | 49 | 12.0 | 0.0 | 0.00 | 0.00 | 0.00 | 100 | 1011.4 |
| 20260506141115 | 42 | 77 | 8.0 | 0.0 | 0.00 | 0.00 | 0.00 | 100 | 1011.4 |
| 20260506140641 | 42 | 63 | 11.0 | 0.0 | 0.00 | 0.00 | 0.00 | 100 | 1011.3 |
| 20260506140121 | 42 | 47 | 10.0 | 0.0 | 0.00 | 0.00 | 0.00 | 100 | 1011.3 |
| 20260506135601 | 42 | 62 | 10.0 | 0.0 | 0.00 | 0.00 | 0.00 | 100 | 1011.2 |
| 20260506135128 | 42 | 66 | 7.0 | 0.0 | 0.00 | 0.00 | 0.00 | 100 | 1011.1 |
| 20260506134608 | 42 | 66 | 10.0 | 0.0 | 0.00 | 0.00 | 0.00 | 100 | 1011.1 |
| 20260506134134 | 42 | 86 | 6.0 | 0.0 | 0.00 | 0.00 | 0.00 | 100 | 1011.1 |
| 20260506133614 | 42 | 60 | 10.0 | 0.0 | 0.00 | 0.00 | 0.00 | 100 | 1011.0 |
| 20260506133140 | 42 | 48 | 13.0 | 0.0 | 0.00 | 0.00 | 0.00 | 100 | 1010.9 |
| 20260506132620 | 42 | 93 | 7.0 | 0.0 | 0.00 | 0.00 | 0.00 | 100 | 1011.0 |
| 20260506132101 | 42 | 46 | 16.0 | 0.0 | 0.00 | 0.00 | 0.00 | 100 | 1011.0 |
| 20260506131627 | 42 | 54 | 12.0 | 0.0 | 0.00 | 0.00 | 0.00 | 100 | 1010.9 |
| 20260506131108 | 43 | 50 | 13.0 | 0.0 | 0.00 | 0.00 | 0.00 | 100 | 1010.9 |
| 20260506130633 | 43 | 54 | 15.0 | 0.0 | 0.00 | 0.00 | 0.00 | 100 | 1011.0 |
| 20260506130113 | 43 | 52 | 11.0 | 0.0 | 0.00 | 0.00 | 0.00 | 100 | 1011.0 |
| 20260506125640 | 43 | 42 | 18.0 | 0.0 | 0.00 | 0.00 | 0.00 | 100 | 1011.0 |
| 20260506125119 | 43 | 61 | 10.0 | 0.0 | 0.00 | 0.00 | 0.00 | 100 | 1011.1 |
| 20260506124645 | 43 | 47 | 12.0 | 0.0 | 0.00 | 0.00 | 0.00 | 100 | 1011.1 |
| 20260506124126 | 43 | 64 | 8.0 | 0.0 | 0.00 | 0.00 | 0.00 | 100 | 1011.1 |
| 20260506123606 | 43 | 28 | 10.0 | 0.0 | 0.00 | 0.00 | 0.00 | 100 | 1011.2 |
| 20260506123133 | 43 | 49 | 9.0 | 0.0 | 0.00 | 0.00 | 0.00 | 100 | 1011.2 |
| 20260506122613 | 43 | 46 | 13.0 | 0.0 | 0.00 | 0.00 | 0.00 | 100 | 1011.1 |
| 20260506122140 | 43 | 63 | 10.0 | 0.0 | 0.00 | 0.00 | 0.00 | 100 | 1011.2 |
| 20260506121618 | 43 | 49 | 9.0 | 0.0 | 0.00 | 0.00 | 0.00 | 100 | 1011.2 |
| 20260506121146 | 43 | 45 | 12.0 | 0.0 | 0.00 | 0.00 | 0.00 | 100 | 1011.1 |
| 20260506120626 | 43 | 55 | 7.0 | 0.0 | 0.00 | 0.00 | 0.00 | 100 | 1011.1 |
| 20260506120105 | 42 | 45 | 10.0 | 0.0 | 0.00 | 0.00 | 0.00 | 100 | 1011.1 |
| 20260506115633 | 42 | 26 | 6.0 | 0.0 | 0.00 | 0.00 | 0.00 | 100 | 1011.2 |
| 20260506115112 | 42 | 43 | 12.0 | 0.0 | 0.00 | 0.00 | 0.00 | 100 | 1011.2 |
| 20260506114639 | 42 | 53 | 11.0 | 0.0 | 0.00 | 0.00 | 0.00 | 100 | 1011.2 |
| 20260506114120 | 42 | 41 | 14.0 | 0.0 | 0.00 | 0.00 | 0.00 | 100 | 1011.4 |
| 20260506113645 | 42 | 58 | 9.0 | 0.0 | 0.00 | 0.00 | 0.00 | 100 | 1011.1 |
| 20260506113126 | 42 | 27 | 11.0 | 0.0 | 0.00 | 0.00 | 0.00 | 100 | 1011.1 |
| 20260506112606 | 42 | 41 | 6.0 | 0.0 | 0.00 | 0.00 | 0.00 | 100 | 1011.3 |
| 20260506112132 | 42 | 42 | 9.0 | 0.0 | 0.00 | 0.00 | 0.00 | 100 | 1011.1 |
| 20260506111613 | 42 | 43 | 10.0 | 0.0 | 0.00 | 0.00 | 0.00 | 100 | 1011.1 |
| 20260506111138 | 42 | 40 | 7.0 | 0.0 | 0.00 | 0.00 | 0.00 | 100 | 1011.0 |
| 20260506110619 | 42 | 42 | 11.0 | 0.0 | 0.00 | 0.00 | 0.00 | 100 | 1011.0 |
| 20260506110144 | 43 | 46 | 6.0 | 0.0 | 0.00 | 0.00 | 0.00 | 100 | 1011.0 |
| 20260506105625 | 43 | 49 | 9.0 | 0.0 | 0.00 | 0.00 | 0.00 | 100 | 1011.1 |
| 20260506105105 | 43 | 61 | 8.0 | 0.0 | 0.00 | 0.00 | 0.00 | 100 | 1011.2 |
| 20260506104631 | 43 | 37 | 4.0 | 0.0 | 0.00 | 0.00 | 0.00 | 100 | 1011.2 |
| 20260506104112 | 43 | 35 | 8.0 | 0.0 | 0.00 | 0.00 | 0.00 | 100 | 1011.2 |
| 20260506103638 | 43 | 42 | 7.0 | 0.0 | 0.00 | 0.00 | 0.00 | 100 | 1011.4 |
| 20260506103118 | 43 | 33 | 5.0 | 0.0 | 0.00 | 0.00 | 0.00 | 100 | 1011.2 |
| 20260506102643 | 43 | 17 | 4.0 | 0.0 | 0.00 | 0.00 | 0.00 | 100 | 1011.0 |
| 20260506102125 | 43 | 47 | 8.0 | 0.0 | 0.00 | 0.00 | 0.00 | 100 | 1011.1 |
| 20260506101604 | 43 | 46 | 9.0 | 0.0 | 0.00 | 0.00 | 0.00 | 100 | 1011.0 |
| 20260506101130 | 43 | 41 | 8.0 | 0.0 | 0.00 | 0.00 | 0.00 | 100 | 1011.0 |
| 20260506100611 | 43 | 64 | 7.0 | 0.0 | 0.00 | 0.00 | 0.00 | 100 | 1011.3 |
| 20260506100137 | 43 | 53 | 7.0 | 0.0 | 0.00 | 0.00 | 0.00 | 100 | 1011.2 |
| 20260506095617 | 43 | 41 | 10.0 | 0.0 | 0.00 | 0.00 | 0.00 | 100 | 1011.1 |
| 20260506095143 | 43 | 52 | 8.0 | 0.0 | 0.00 | 0.00 | 0.00 | 100 | 1011.2 |
| 20260506094624 | 44 | 46 | 8.0 | 0.0 | 0.00 | 0.00 | 0.00 | 100 | 1011.0 |
| 20260506094104 | 44 | 73 | 7.0 | 0.0 | 0.00 | 0.00 | 0.00 | 100 | 1010.9 |
| 20260506093629 | 44 | 86 | 4.0 | 0.0 | 0.00 | 0.00 | 0.00 | 100 | 1010.8 |
| 20260506093110 | 44 | 56 | 9.0 | 0.0 | 0.00 | 0.00 | 0.00 | 100 | 1010.6 |
| 20260506092637 | 44 | 93 | 7.0 | 0.0 | 0.00 | 0.00 | 0.00 | 100 | 1010.6 |
| 20260506092116 | 44 | 59 | 10.0 | 0.0 | 0.00 | 0.00 | 0.00 | 100 | 1010.4 |
| 20260506091643 | 45 | 44 | 12.0 | 0.0 | 0.00 | 0.00 | 0.00 | 100 | 1010.6 |
| 20260506091123 | 45 | 74 | 6.0 | 0.0 | 0.00 | 0.00 | 0.00 | 100 | 1010.7 |
| 20260506090603 | 45 | 57 | 8.0 | 0.0 | 0.00 | 0.00 | 0.00 | 100 | 1010.7 |
| 20260506090130 | 44 | 107 | 5.0 | 0.0 | 0.00 | 0.00 | 0.00 | 100 | 1010.7 |
| 20260506085609 | 44 | 88 | 9.0 | 0.0 | 0.00 | 0.00 | 0.00 | 100 | 1010.6 |
| 20260506085136 | 44 | 83 | 9.0 | 0.0 | 0.00 | 0.00 | 0.00 | 100 | 1010.6 |
| 20260506084617 | 44 | 82 | 6.0 | 0.0 | 0.00 | 0.00 | 0.00 | 100 | 1010.7 |
| 20260506084142 | 44 | 92 | 11.0 | 0.0 | 0.00 | 0.00 | 0.00 | 100 | 1010.9 |
| 20260506083623 | 44 | 90 | 10.0 | 0.0 | 0.00 | 0.00 | 0.00 | 100 | 1010.9 |
| 20260506083103 | 44 | 62 | 5.0 | 0.0 | 0.00 | 0.00 | 0.00 | 100 | 1010.8 |
| 20260506082629 | 44 | 50 | 6.0 | 0.0 | 0.00 | 0.00 | 0.00 | 100 | 1010.8 |
| 20260506082110 | 44 | 103 | 11.0 | 0.0 | 0.00 | 0.00 | 0.00 | 100 | 1010.8 |
| 20260506081635 | 45 | 89 | 11.0 | 0.0 | 0.00 | 0.00 | 0.00 | 100 | 1010.9 |
| 20260506081115 | 44 | 83 | 9.0 | 0.0 | 0.00 | 0.00 | 0.00 | 100 | 1010.8 |
| 20260506080641 | 45 | 90 | 11.0 | 0.0 | 0.00 | 0.00 | 0.00 | 100 | 1010.9 |
| 20260506080122 | 45 | 72 | 11.0 | 0.0 | 0.00 | 0.00 | 0.00 | 100 | 1011.0 |
| 20260506073141 | 45 | 83 | 9.0 | 0.0 | 0.00 | 0.00 | 0.00 | 100 | 1011.2 |
| 20260506072621 | 45 | 58 | 8.0 | 0.0 | 0.00 | 0.00 | 0.00 | 100 | 1011.0 |
| 20260506072101 | 45 | 70 | 8.0 | 0.0 | 0.00 | 0.00 | 0.00 | 100 | 1011.1 |
| 20260506071628 | 45 | 54 | 11.0 | 0.0 | 0.00 | 0.00 | 0.00 | 100 | 1011.1 |
| 20260506071108 | 45 | 70 | 6.0 | 0.0 | 0.00 | 0.00 | 0.00 | 100 | 1011.1 |
| 20260506070633 | 45 | 59 | 7.0 | 0.0 | 0.00 | 0.00 | 0.00 | 100 | 1011.1 |
| 20260506070115 | 45 | 56 | 6.0 | 0.0 | 0.00 | 0.00 | 0.00 | 100 | 1011.1 |
| 20260506062140 | 45 | 51 | 7.0 | 0.0 | 0.00 | 0.00 | 0.00 | 100 | 1011.4 |
| 20260506061621 | 45 | 51 | 4.0 | 0.0 | 0.00 | 0.00 | 0.00 | 100 | 1011.4 |
| 20260506061146 | 45 | 53 | 5.0 | 0.0 | 0.00 | 0.00 | 0.00 | 100 | 1011.4 |
| 20260506060627 | 45 | 39 | 8.0 | 0.0 | 0.00 | 0.00 | 0.00 | 100 | 1011.4 |
| 20260506060106 | 45 | 70 | 7.0 | 0.0 | 0.00 | 0.00 | 0.00 | 100 | 1011.4 |
| 20260506051137 | 46 | 38 | 5.0 | 0.0 | 0.00 | 0.00 | 0.00 | 100 | 1011.7 |
| 20260506050618 | 45 | 54 | 6.0 | 0.0 | 0.00 | 0.00 | 0.00 | 100 | 1011.7 |
| 20260506050144 | 45 | 42 | 4.0 | 0.0 | 0.00 | 0.00 | 0.00 | 100 | 1011.8 |
| 20260506045104 | 45 | 58 | 6.0 | 0.0 | 0.00 | 0.00 | 0.00 | 100 | 1011.8 |
| 20260506044631 | 45 | 65 | 6.0 | 0.0 | 0.00 | 0.00 | 0.00 | 100 | 1011.7 |
| 20260506044112 | 45 | 46 | 4.0 | 0.0 | 0.00 | 0.00 | 0.00 | 100 | 1011.9 |
| 20260506043636 | 44 | 48 | 5.0 | 0.0 | 0.00 | 0.00 | 0.00 | 100 | 1011.9 |
| 20260506043118 | 44 | 62 | 4.0 | 0.0 | 0.00 | 0.00 | 0.00 | 100 | 1012.0 |
| 20260506042645 | 44 | 81 | 5.0 | 0.0 | 0.00 | 0.00 | 0.00 | 100 | 1012.0 |
| 20260506042123 | 44 | 49 | 6.0 | 0.0 | 0.00 | 0.00 | 0.00 | 100 | 1011.9 |
| 20260506041604 | 44 | 43 | 5.0 | 0.0 | 0.00 | 0.00 | 0.00 | 100 | 1011.9 |
| 20260506041130 | 44 | 42 | 5.0 | 0.0 | 0.00 | 0.00 | 0.00 | 100 | 1011.9 |
| 20260506040611 | 44 | 69 | 3.0 | 0.0 | 0.00 | 0.00 | 0.00 | 100 | 1012.0 |
| 20260506040136 | 44 | 83 | 2.0 | 0.0 | 0.00 | 0.00 | 0.00 | 100 | 1012.1 |
| 20260506035616 | 44 | 53 | 4.0 | 0.0 | 0.00 | 0.00 | 0.00 | 100 | 1012.0 |
| 20260506035144 | 44 | 46 | 5.0 | 0.0 | 0.00 | 0.00 | 0.00 | 100 | 1012.1 |
| 20260506034623 | 44 | 68 | 4.0 | 0.0 | 0.00 | 0.00 | 0.00 | 100 | 1012.1 |
| 20260506034104 | 44 | 64 | 5.0 | 0.0 | 0.00 | 0.00 | 0.00 | 100 | 1012.0 |
| 20260506033630 | 44 | 45 | 4.0 | 0.0 | 0.00 | 0.00 | 0.00 | 100 | 1012.1 |
| 20260506033109 | 43 | 54 | 7.0 | 0.0 | 0.00 | 0.00 | 0.00 | 100 | 1012.1 |
| 20260506032636 | 43 | 64 | 3.0 | 0.0 | 0.00 | 0.00 | 0.00 | 100 | 1012.0 |
| 20260506032116 | 43 | 35 | 4.0 | 0.0 | 0.00 | 0.00 | 0.00 | 100 | 1012.1 |
| 20260506031643 | 43 | 38 | 5.0 | 0.0 | 0.00 | 0.00 | 0.00 | 100 | 1012.1 |
| 20260506031123 | 43 | 42 | 4.0 | 0.0 | 0.00 | 0.00 | 0.00 | 100 | 1012.1 |
| 20260506030602 | 43 | 60 | 4.0 | 0.0 | 0.00 | 0.00 | 0.00 | 100 | 1012.1 |
| 20260506030129 | 43 | 21 | 2.0 | 0.0 | 0.00 | 0.00 | 0.00 | 100 | 1012.0 |
| 20260506025609 | 43 | 39 | 6.0 | 0.0 | 0.00 | 0.00 | 0.00 | 100 | 1012.1 |
| 20260506025135 | 43 | 18 | 6.0 | 0.0 | 0.00 | 0.00 | 0.00 | 100 | 1012.1 |
| 20260506024616 | 43 | 45 | 4.0 | 0.0 | 0.00 | 0.00 | 0.00 | 100 | 1012.1 |
| 20260506024142 | 43 | 52 | 3.0 | 0.0 | 0.00 | 0.00 | 0.00 | 100 | 1012.1 |
| 20260506023622 | 43 | 79 | 3.0 | 0.0 | 0.00 | 0.00 | 0.00 | 100 | 1012.1 |
| 20260506023103 | 43 | 27 | 5.0 | 0.0 | 0.00 | 0.00 | 0.00 | 100 | 1012.1 |
| 20260506022628 | 43 | 55 | 5.0 | 0.0 | 0.00 | 0.00 | 0.00 | 100 | 1012.1 |
| 20260506022109 | 44 | 41 | 3.0 | 0.0 | 0.00 | 0.00 | 0.00 | 100 | 1012.2 |
| 20260506021635 | 44 | 25 | 3.0 | 0.0 | 0.00 | 0.00 | 0.00 | 100 | 1012.3 |
| 20260506021115 | 44 | 20 | 4.0 | 0.0 | 0.00 | 0.00 | 0.00 | 100 | 1012.3 |
| 20260506020641 | 44 | 39 | 4.0 | 0.0 | 0.00 | 0.00 | 0.00 | 100 | 1012.6 |
| 20260506020121 | 44 | 40 | 3.0 | 0.0 | 0.00 | 0.00 | 0.00 | 100 | 1012.6 |
| 20260506015602 | 44 | 28 | 4.0 | 0.0 | 0.00 | 0.00 | 0.00 | 100 | 1012.7 |
| 20260506015128 | 44 | 94 | 3.0 | 0.0 | 0.00 | 0.00 | 0.00 | 100 | 1012.7 |
| 20260506014608 | 44 | 49 | 3.0 | 0.0 | 0.00 | 0.00 | 0.00 | 100 | 1012.6 |
| 20260506014134 | 44 | 46 | 3.0 | 0.0 | 0.00 | 0.00 | 0.00 | 100 | 1012.7 |
| 20260506013614 | 44 | 81 | 2.0 | 0.0 | 0.00 | 0.00 | 0.00 | 100 | 1012.6 |
| 20260506013141 | 44 | 61 | 1.0 | 0.0 | 0.00 | 0.00 | 0.00 | 100 | 1012.7 |
| 20260506012620 | 44 | 107 | 1.0 | 0.0 | 0.00 | 0.00 | 0.00 | 100 | 1012.6 |